Home > Weather > Brades > Past weeks

Flag for Montserrat Past Weather in Brades, Montserrat — Yesterday and Last 2 Weeks

Now
81 °F

Passing clouds.


Feels Like: 85 °F
Forecast: 81 / 85 °F
Wind: 5 mph from East

Location: Vc Bird International Antigua Airport

Current Time: Aug 27, 2016 at 8:34:02 PM

Latest Report: Aug 27, 2016 at 8:00 PM


Visibility: N/A

Pressure: 29.92 "Hg

Humidity: 79%

Dew Point: 73 °F

Location of BradesLocation

Past Weather in Brades — Graph

°F

Brades Temperature Yesterday

Maximum temperature yesterday: 86 °F (at 9:00 AM)
Minimum temperature yesterday: 79 °F (at 5:00 AM)
Average temperature yesterday: 83 °F

High & Low Weather Summary for the Past Weeks

 TemperatureHumidityPressure
High88 °F (Aug 16, 12:00 PM)94% (Aug 13, 7:00 AM)30.04 "Hg (Aug 13, 7:00 AM)
Low72 °F (Aug 24, 9:00 AM)59% (Aug 22, 10:00 AM)29.83 "Hg (Aug 24, 2:00 AM)
Average83 °F77%29.97 "Hg
* Reported Aug 12 7:00 PM — Aug 27 7:00 PM, Brades, Weather by CustomWeather, © 2016

Note: Actual official high and low records may vary slightly from our data, if they occured in-between our weather recording intervals... More about our weather records

Advertising

Brades Weather History for the Previous 24 Hours

Scroll right to see more
 ConditionsComfort  
Time TempWeatherWind HumidityBarometerVisibility
7:00 PM
Sat, Aug 27
82 °FPassing clouds.5 mph74%29.92 "HgN/A
6:00 PM82 °FPassing clouds.5 mph74%29.92 "HgN/A
5:00 PM82 °FScattered showers. Scattered clouds.7 mph74%29.92 "HgN/A
4:22 PM84 °FThunderstorms. Passing clouds.9 mph70%29.89 "HgN/A
4:00 PM86 °FScattered showers. Scattered clouds.8 mph70%29.89 "HgN/A
3:00 PM84 °FScattered showers. Passing clouds.9 mph70%29.92 "HgN/A
2:00 PM86 °FScattered showers. Passing clouds.9 mph70%29.92 "HgN/A
1:00 PM86 °FScattered clouds.9 mph75%29.92 "HgN/A
12:00 PM86 °FScattered clouds.8 mph70%29.95 "HgN/A
11:00 AM86 °FPassing clouds.7 mph70%29.95 "HgN/A
10:00 AM86 °FPassing clouds.7 mph70%29.95 "HgN/A
9:00 AM84 °FPassing clouds.6 mph74%29.95 "HgN/A
8:00 AM82 °FPassing clouds.2 mph79%29.95 "HgN/A
7:00 AM79 °FPassing clouds.2 mph84%29.95 "HgN/A
6:00 AM75 °FPassing clouds.2 mph89%29.92 "HgN/A
5:00 AM77 °FPassing clouds.2 mph79%29.92 "HgN/A
4:00 AM79 °FPassing clouds.6 mph79%29.92 "HgN/A
3:00 AM81 °FPassing clouds.6 mph79%29.92 "HgN/A
2:00 AM81 °FPassing clouds.6 mph84%29.92 "HgN/A
1:00 AM81 °FPassing clouds.5 mph84%29.92 "HgN/A
12:00 AM81 °FPassing clouds.6 mph84%29.95 "HgN/A
11:00 PM
Fri, Aug 26
81 °FPassing clouds.6 mph84%29.98 "HgN/A
10:00 PM81 °FPassing clouds.5 mph84%29.98 "HgN/A
9:00 PM82 °FPassing clouds.3 mph79%29.95 "HgN/A
8:00 PM81 °FPassing clouds.5 mph84%29.95 "HgN/A
Weather by CustomWeather, © 2016

See weather overviewHow to use our weather pages